QFA133 YBBN-NZCH

Flight info

Callsign QFA133
Flight time 2h 25m
Altitude 37000
Route SCOTT Y76 SIFRA L503 ELPIB/N0465F390 L503 KABKA
Aircraft A333/H-SADE1E2E3GHIJ3J5M1P2RWXY/LB2D1

Departure

Time 2026-05-08 02:13
Airport Brisbane International Airport (YBBN)

Arrival

Time 2026-05-08 04:38
Airport Christchurch International Airport (NZCH)
Time Latitude Longitude Altitude Speed Heading
2026-05-08 01:46 -27.40288 153.11163 30 ft 0 kts 297°
2026-05-08 01:50 -27.40288 153.11165 31 ft 0 kts 297°
2026-05-08 01:51 -27.40294 153.11177 31 ft 2 kts 297°
2026-05-08 01:51 -27.40301 153.11192 31 ft 2 kts 297°
2026-05-08 01:51 -27.40308 153.11206 31 ft 2 kts 306°
2026-05-08 01:51 -27.40319 153.11218 31 ft 2 kts 328°
2026-05-08 01:52 -27.40332 153.11226 31 ft 2 kts 346°
2026-05-08 01:52 -27.40347 153.11227 31 ft 2 kts
2026-05-08 01:52 -27.40362 153.11224 31 ft 1 kts 23°
2026-05-08 01:52 -27.40367 153.11221 31 ft 0 kts 27°
2026-05-08 02:02 -27.40366 153.11221 30 ft 1 kts 27°
2026-05-08 02:02 -27.40348 153.11232 30 ft 4 kts 27°
2026-05-08 02:02 -27.40309 153.11255 30 ft 7 kts 28°
2026-05-08 02:02 -27.40259 153.11289 30 ft 9 kts 31°
2026-05-08 02:03 -27.40203 153.11331 30 ft 10 kts 49°
2026-05-08 02:03 -27.40200 153.11409 30 ft 11 kts 114°
2026-05-08 02:03 -27.40211 153.11491 30 ft 11 kts 52°
2026-05-08 02:03 -27.40139 153.11539 30 ft 12 kts 27°
2026-05-08 02:04 -27.40052 153.11589 30 ft 14 kts 27°
2026-05-08 02:04 -27.39955 153.11642 30 ft 16 kts 26°
2026-05-08 02:04 -27.39846 153.11702 30 ft 17 kts 26°
2026-05-08 02:04 -27.39731 153.11769 30 ft 19 kts 27°
2026-05-08 02:05 -27.39611 153.11839 30 ft 19 kts 27°
2026-05-08 02:05 -27.39490 153.11906 30 ft 19 kts 26°
2026-05-08 02:05 -27.39370 153.11975 30 ft 19 kts 27°
2026-05-08 02:05 -27.39251 153.12044 30 ft 19 kts 27°
2026-05-08 02:06 -27.39134 153.12111 30 ft 19 kts 27°
2026-05-08 02:06 -27.39016 153.12180 30 ft 18 kts 27°
2026-05-08 02:06 -27.38898 153.12247 30 ft 18 kts 27°
2026-05-08 02:06 -27.38781 153.12314 30 ft 18 kts 27°
2026-05-08 02:07 -27.38663 153.12381 30 ft 18 kts 27°
2026-05-08 02:07 -27.38547 153.12447 30 ft 18 kts 27°
2026-05-08 02:07 -27.38432 153.12514 30 ft 18 kts 27°
2026-05-08 02:07 -27.38316 153.12581 30 ft 18 kts 27°
2026-05-08 02:08 -27.38199 153.12646 30 ft 18 kts 27°
2026-05-08 02:08 -27.38083 153.12712 30 ft 18 kts 26°
2026-05-08 02:08 -27.37967 153.12778 30 ft 18 kts 27°
2026-05-08 02:08 -27.37848 153.12846 30 ft 18 kts 27°
2026-05-08 02:09 -27.37709 153.12927 30 ft 18 kts 27°
2026-05-08 02:09 -27.37573 153.13005 30 ft 18 kts 27°
2026-05-08 02:09 -27.37436 153.13083 30 ft 18 kts 26°
2026-05-08 02:09 -27.37308 153.13155 30 ft 13 kts 30°
2026-05-08 02:10 -27.37274 153.13234 30 ft 11 kts 103°
2026-05-08 02:10 -27.37313 153.13322 30 ft 6 kts 117°
2026-05-08 02:10 -27.37317 153.13333 30 ft 0 kts 117°
2026-05-08 02:11 -27.37318 153.13336 30 ft 1 kts 117°
2026-05-08 02:11 -27.37329 153.13358 30 ft 4 kts 118°
2026-05-08 02:11 -27.37355 153.13394 30 ft 7 kts 139°
2026-05-08 02:11 -27.37412 153.13428 30 ft 10 kts 167°
2026-05-08 02:12 -27.37491 153.13414 30 ft 12 kts 205°
2026-05-08 02:12 -27.37580 153.13364 30 ft 24 kts 207°
2026-05-08 02:12 -27.37930 153.13165 31 ft 86 kts 207°
2026-05-08 02:12 -27.38635 153.12761 31 ft 138 kts 207°
2026-05-08 02:13 -27.39619 153.12198 119 ft 172 kts 208°
2026-05-08 02:13 -27.40673 153.11595 637 ft 172 kts 207°
2026-05-08 02:13 -27.41762 153.10976 1177 ft 176 kts 204°
2026-05-08 02:13 -27.42957 153.10780 1703 ft 180 kts 164°
2026-05-08 02:14 -27.44124 153.11446 1981 ft 199 kts 145°
2026-05-08 02:14 -27.45331 153.12341 2307 ft 217 kts 147°
2026-05-08 02:14 -27.46685 153.13235 2670 ft 235 kts 150°
2026-05-08 02:14 -27.48163 153.14117 3237 ft 244 kts 152°
2026-05-08 02:15 -27.49745 153.14774 3950 ft 245 kts 174°
2026-05-08 02:15 -27.51419 153.14655 4551 ft 250 kts 192°
2026-05-08 02:15 -27.53176 153.14204 5020 ft 263 kts 195°
2026-05-08 02:15 -27.54950 153.13716 5705 ft 267 kts 197°
2026-05-08 02:16 -27.56739 153.13104 6476 ft 266 kts 200°
2026-05-08 02:16 -27.58467 153.12422 7190 ft 267 kts 201°
2026-05-08 02:16 -27.60298 153.12025 7675 ft 275 kts 178°
2026-05-08 02:16 -27.62143 153.12660 7921 ft 283 kts 150°
2026-05-08 02:17 -27.63568 153.14212 7944 ft 288 kts 127°
2026-05-08 02:17 -27.64702 153.16090 7999 ft 291 kts 127°
2026-05-08 02:17 -27.65855 153.17990 8516 ft 296 kts 127°
2026-05-08 02:17 -27.67016 153.19879 9233 ft 295 kts 128°
2026-05-08 02:18 -27.68198 153.21785 9837 ft 298 kts 128°
2026-05-08 02:18 -27.69400 153.23708 10347 ft 305 kts 128°
2026-05-08 02:18 -27.70656 153.25711 10640 ft 321 kts 128°
2026-05-08 02:18 -27.71890 153.27887 10904 ft 339 kts 117°
2026-05-08 02:19 -27.72631 153.30470 11181 ft 357 kts 101°
2026-05-08 02:19 -27.72796 153.34108 11866 ft 365 kts 91°
2026-05-08 02:19 -27.72787 153.37775 12675 ft 368 kts 91°
2026-05-08 02:19 -27.72783 153.41533 13419 ft 374 kts 91°
2026-05-08 02:20 -27.72806 153.45319 14149 ft 379 kts 91°
2026-05-08 02:20 -27.72839 153.49165 14876 ft 384 kts 91°
2026-05-08 02:20 -27.73240 153.53062 15564 ft 389 kts 107°
2026-05-08 02:20 -27.74609 153.56715 16277 ft 391 kts 122°
2026-05-08 02:21 -27.76416 153.60138 16971 ft 396 kts 124°
2026-05-08 02:21 -27.78263 153.63551 17652 ft 401 kts 123°
2026-05-08 02:21 -27.80131 153.67073 18311 ft 407 kts 123°
2026-05-08 02:21 -27.82025 153.70705 18930 ft 414 kts 122°
2026-05-08 02:22 -27.83912 153.74350 19555 ft 420 kts 122°
2026-05-08 02:22 -27.85854 153.78011 20155 ft 425 kts 125°
2026-05-08 02:22 -27.88102 153.81500 20727 ft 428 kts 132°
2026-05-08 02:22 -27.90685 153.84779 21314 ft 432 kts 136°
2026-05-08 02:23 -27.93348 153.87978 21848 ft 436 kts 137°
2026-05-08 02:23 -27.96062 153.91225 22397 ft 442 kts 137°
2026-05-08 02:23 -27.98807 153.94528 22924 ft 447 kts 137°
2026-05-08 02:23 -28.01565 153.97864 23411 ft 452 kts 137°
2026-05-08 02:24 -28.04346 154.01239 23853 ft 457 kts 137°
2026-05-08 02:24 -28.07199 154.04706 24299 ft 463 kts 137°
2026-05-08 02:24 -28.10070 154.08197 24735 ft 468 kts 137°
2026-05-08 02:24 -28.12959 154.11719 25145 ft 474 kts 137°
2026-05-08 02:25 -28.15882 154.15279 25533 ft 480 kts 137°
2026-05-08 02:25 -28.18870 154.18926 25918 ft 485 kts 137°
2026-05-08 02:25 -28.21876 154.22597 26321 ft 490 kts 137°
2026-05-08 02:25 -28.24902 154.26296 26714 ft 495 kts 138°
2026-05-08 02:26 -28.27934 154.30006 27080 ft 499 kts 138°
2026-05-08 02:26 -28.31027 154.33787 27433 ft 504 kts 138°
2026-05-08 02:26 -28.34134 154.37596 27793 ft 509 kts 138°
2026-05-08 02:26 -28.37274 154.41449 28141 ft 513 kts 138°
2026-05-08 02:27 -28.40442 154.45340 28487 ft 518 kts 138°
2026-05-08 02:27 -28.43607 154.49228 28831 ft 521 kts 138°
2026-05-08 02:27 -28.46839 154.53203 29143 ft 526 kts 138°
2026-05-08 02:27 -28.50114 154.57233 29445 ft 531 kts 138°
2026-05-08 02:28 -28.53373 154.61250 29759 ft 535 kts 138°
2026-05-08 02:28 -28.56640 154.65286 30091 ft 538 kts 137°
2026-05-08 02:28 -28.59936 154.69359 30406 ft 540 kts 138°
2026-05-08 02:28 -28.63250 154.73457 30691 ft 543 kts 138°
2026-05-08 02:29 -28.66616 154.77623 30979 ft 545 kts 138°
2026-05-08 02:29 -28.69941 154.81738 31240 ft 548 kts 138°
2026-05-08 02:29 -28.73330 154.85941 31486 ft 551 kts 139°
2026-05-08 02:29 -28.76697 154.90117 31740 ft 554 kts 138°
2026-05-08 02:30 -28.80091 154.94336 32070 ft 555 kts 139°
2026-05-08 02:30 -28.83464 154.98537 32462 ft 554 kts 139°
2026-05-08 02:30 -28.86859 155.02774 32841 ft 553 kts 139°
2026-05-08 02:30 -28.90223 155.06969 33225 ft 552 kts 139°
2026-05-08 02:31 -28.93609 155.11189 33575 ft 553 kts 139°
2026-05-08 02:31 -28.96959 155.15373 33914 ft 553 kts 139°
2026-05-08 02:31 -29.00371 155.19632 34243 ft 554 kts 139°
2026-05-08 02:31 -29.03747 155.23859 34613 ft 554 kts 139°
2026-05-08 02:32 -29.07116 155.28081 34982 ft 553 kts 139°
2026-05-08 02:32 -29.10474 155.32295 35357 ft 552 kts 139°
2026-05-08 02:32 -29.13835 155.36513 35629 ft 554 kts 139°
2026-05-08 02:32 -29.17215 155.40761 35828 ft 556 kts 139°
2026-05-08 02:33 -29.20627 155.45056 36095 ft 557 kts 139°
2026-05-08 02:33 -29.23974 155.49269 36311 ft 559 kts 139°
2026-05-08 02:33 -29.27376 155.53558 36529 ft 560 kts 139°
2026-05-08 02:33 -29.30807 155.57883 36704 ft 563 kts 139°
2026-05-08 02:34 -29.34225 155.62203 36859 ft 565 kts 139°
2026-05-08 02:34 -29.37663 155.66560 37067 ft 566 kts 139°
2026-05-08 02:34 -29.44588 155.75323 37086 ft 570 kts 139°
2026-05-08 02:35 -29.51463 155.84062 37081 ft 569 kts 139°
2026-05-08 02:35 -29.56828 155.90897 37075 ft 567 kts 139°
2026-05-08 02:36 -29.62138 155.97658 37072 ft 569 kts 139°
2026-05-08 02:36 -29.67406 156.04382 37077 ft 569 kts 139°
2026-05-08 02:37 -29.72688 156.11140 37076 ft 569 kts 139°
2026-05-08 02:37 -29.77992 156.17923 37072 ft 569 kts 140°
2026-05-08 02:38 -29.83606 156.24161 37070 ft 559 kts 148°
2026-05-08 02:38 -29.89519 156.29895 37067 ft 558 kts 149°
2026-05-08 02:39 -29.95487 156.35623 37065 ft 559 kts 149°
2026-05-08 02:39 -30.01445 156.41399 37065 ft 559 kts 148°
2026-05-08 02:40 -30.07325 156.47141 37056 ft 557 kts 148°
2026-05-08 02:40 -30.13242 156.52920 37055 ft 557 kts 148°
2026-05-08 02:41 -30.19160 156.58714 37053 ft 556 kts 148°
2026-05-08 02:41 -30.25060 156.64496 37051 ft 559 kts 148°
2026-05-08 02:42 -30.30999 156.70331 37045 ft 558 kts 148°
2026-05-08 02:42 -30.36873 156.76115 37048 ft 556 kts 148°
2026-05-08 02:43 -30.42791 156.81940 37044 ft 558 kts 148°
2026-05-08 02:43 -30.48692 156.87762 37043 ft 558 kts 148°
2026-05-08 02:44 -30.54577 156.93582 37040 ft 559 kts 148°
2026-05-08 02:44 -30.60456 156.99408 37041 ft 558 kts 148°
2026-05-08 02:45 -30.66365 157.05267 37037 ft 558 kts 148°
2026-05-08 02:45 -30.72271 157.11130 37033 ft 559 kts 148°
2026-05-08 02:46 -30.78176 157.17006 37032 ft 560 kts 148°
2026-05-08 02:46 -30.84049 157.22868 37029 ft 559 kts 148°
2026-05-08 02:47 -30.89934 157.28743 37026 ft 558 kts 148°
2026-05-08 02:47 -30.95829 157.34636 37027 ft 560 kts 148°
2026-05-08 02:48 -31.01742 157.40565 37018 ft 560 kts 148°
2026-05-08 02:48 -31.07601 157.46446 37015 ft 558 kts 148°
2026-05-08 02:49 -31.13502 157.52376 37011 ft 559 kts 148°
2026-05-08 02:49 -31.19390 157.58304 37009 ft 558 kts 148°
2026-05-08 02:50 -31.25260 157.64226 37005 ft 558 kts 148°
2026-05-08 02:50 -31.31109 157.70132 36999 ft 558 kts 147°
2026-05-08 02:51 -31.36963 157.76062 36996 ft 558 kts 147°
2026-05-08 02:51 -31.42840 157.82028 36994 ft 558 kts 147°
2026-05-08 02:52 -31.45771 157.84998 36878 ft 559 kts 147°
2026-05-08 02:52 -31.48722 157.87999 36949 ft 559 kts 147°
2026-05-08 02:52 -31.54572 157.93950 36997 ft 561 kts 147°
2026-05-08 02:53 -31.60465 157.99960 36985 ft 559 kts 147°
2026-05-08 02:53 -31.66284 158.05905 36983 ft 559 kts 147°
2026-05-08 02:54 -31.72166 158.11920 37007 ft 559 kts 147°
2026-05-08 02:54 -31.78007 158.17902 36999 ft 560 kts 147°
2026-05-08 02:55 -31.86767 158.26900 36975 ft 559 kts 147°
2026-05-08 02:56 -31.92603 158.32913 36966 ft 556 kts 147°
2026-05-08 02:56 -31.98412 158.38898 36959 ft 556 kts 147°
2026-05-08 02:57 -32.04201 158.44879 36954 ft 555 kts 147°
2026-05-08 02:57 -32.10006 158.50882 36950 ft 557 kts 147°
2026-05-08 02:58 -32.15823 158.56915 36943 ft 555 kts 147°
2026-05-08 02:58 -32.22563 158.63915 36947 ft 555 kts 147°
2026-05-08 02:59 -32.30114 158.71764 36934 ft 556 kts 146°
2026-05-08 02:59 -32.37645 158.79623 36924 ft 556 kts 146°
2026-05-08 03:00 -32.45182 158.87506 36923 ft 556 kts 147°
2026-05-08 03:00 -32.52687 158.95371 36929 ft 556 kts 147°
2026-05-08 03:01 -32.60262 159.03325 36915 ft 556 kts 147°
2026-05-08 03:01 -32.67770 159.11232 36906 ft 555 kts 146°
2026-05-08 03:02 -32.75266 159.19142 36916 ft 556 kts 147°
2026-05-08 03:02 -32.79042 159.23129 37043 ft 556 kts 146°
2026-05-08 03:02 -32.82773 159.27080 36886 ft 556 kts 146°
2026-05-08 03:03 -32.90281 159.35048 36925 ft 554 kts 147°
2026-05-08 03:03 -32.97732 159.42961 36909 ft 554 kts 147°
2026-05-08 03:04 -33.05172 159.50893 36901 ft 552 kts 147°
2026-05-08 03:04 -33.12672 159.58896 36891 ft 552 kts 147°
2026-05-08 03:05 -33.20048 159.66789 36887 ft 552 kts 146°
2026-05-08 03:05 -33.27513 159.74797 36888 ft 554 kts 146°
2026-05-08 03:06 -33.34903 159.82750 36871 ft 554 kts 146°
2026-05-08 03:06 -33.42326 159.90752 36869 ft 552 kts 146°
2026-05-08 03:07 -33.49737 159.98763 36860 ft 551 kts 146°
2026-05-08 03:07 -33.57175 160.06819 36851 ft 552 kts 145°
2026-05-08 03:08 -33.64573 160.14854 36852 ft 552 kts 145°
2026-05-08 03:08 -33.71928 160.22861 36846 ft 553 kts 145°
2026-05-08 03:09 -33.79334 160.30945 36840 ft 552 kts 145°
2026-05-08 03:09 -33.86687 160.38989 36846 ft 551 kts 145°
2026-05-08 03:10 -33.94102 160.47119 36838 ft 551 kts 144°
2026-05-08 03:10 -34.01397 160.55142 36844 ft 550 kts 144°
2026-05-08 03:11 -34.08757 160.63254 36834 ft 550 kts 144°
2026-05-08 03:11 -34.16082 160.71343 36827 ft 551 kts 144°
2026-05-08 03:12 -34.23403 160.79450 36819 ft 551 kts 143°
2026-05-08 03:12 -34.30759 160.87616 36809 ft 550 kts 143°
2026-05-08 03:13 -34.38089 160.95781 36816 ft 549 kts 143°
2026-05-08 03:13 -34.45395 161.03928 36809 ft 550 kts 143°
2026-05-08 03:14 -34.52697 161.12099 36795 ft 549 kts 143°
2026-05-08 03:14 -34.59980 161.20267 36784 ft 549 kts 143°
2026-05-08 03:15 -34.67293 161.28484 36788 ft 551 kts 143°
2026-05-08 03:15 -34.74563 161.36679 36788 ft 551 kts 143°
2026-05-08 03:16 -34.81850 161.44913 36769 ft 550 kts 142°
2026-05-08 03:16 -34.89167 161.53198 36766 ft 551 kts 143°
2026-05-08 03:17 -34.96407 161.61427 36764 ft 550 kts 142°
2026-05-08 03:17 -35.03680 161.69705 36764 ft 550 kts 142°
2026-05-08 03:18 -35.10982 161.78035 36767 ft 551 kts 142°
2026-05-08 03:18 -35.18233 161.86334 36762 ft 552 kts 141°
2026-05-08 03:19 -35.25528 161.94708 36740 ft 552 kts 141°
2026-05-08 03:19 -35.32767 162.03032 36743 ft 552 kts 141°
2026-05-08 03:20 -35.39994 162.11372 36747 ft 551 kts 141°
2026-05-08 03:20 -35.47267 162.19778 36741 ft 550 kts 141°
2026-05-08 03:21 -35.54475 162.28136 36727 ft 551 kts 141°
2026-05-08 03:21 -35.61665 162.36491 36735 ft 550 kts 141°
2026-05-08 03:22 -35.68882 162.44899 36715 ft 551 kts 141°
2026-05-08 03:22 -35.76087 162.53322 36722 ft 551 kts 141°
2026-05-08 03:23 -35.83259 162.61725 36691 ft 551 kts 140°
2026-05-08 03:23 -35.90440 162.70158 36701 ft 551 kts 140°
2026-05-08 03:24 -35.97590 162.78575 36694 ft 552 kts 139°
2026-05-08 03:24 -36.04789 162.87077 36699 ft 552 kts 139°
2026-05-08 03:25 -36.11976 162.95590 36695 ft 552 kts 139°
2026-05-08 03:25 -36.19205 163.04071 36699 ft 551 kts 140°
2026-05-08 03:26 -36.26487 163.12349 36686 ft 549 kts 141°
2026-05-08 03:26 -36.33775 163.20662 36682 ft 549 kts 140°
2026-05-08 03:27 -36.40998 163.28950 36670 ft 548 kts 140°
2026-05-08 03:27 -36.48249 163.37300 36668 ft 548 kts 140°
2026-05-08 03:28 -36.55496 163.45665 36654 ft 547 kts 140°
2026-05-08 03:28 -36.62686 163.53983 36642 ft 547 kts 140°
2026-05-08 03:29 -36.69872 163.62320 36645 ft 546 kts 140°
2026-05-08 03:29 -36.77078 163.70705 36633 ft 545 kts 139°
2026-05-08 03:30 -36.87774 163.83192 36617 ft 545 kts 139°
2026-05-08 03:31 -37.02107 164.00001 36609 ft 545 kts 139°
2026-05-08 03:32 -37.12810 164.12619 36599 ft 543 kts 138°
2026-05-08 03:32 -37.19918 164.21022 36583 ft 544 kts 138°
2026-05-08 03:33 -37.27037 164.29463 36573 ft 545 kts 138°
2026-05-08 03:33 -37.34120 164.37888 36564 ft 544 kts 138°
2026-05-08 03:34 -37.41249 164.46385 36557 ft 545 kts 138°
2026-05-08 03:34 -37.48344 164.54864 36537 ft 545 kts 138°
2026-05-08 03:35 -37.55428 164.63359 36528 ft 544 kts 137°
2026-05-08 03:35 -37.62501 164.71861 36523 ft 545 kts 137°
2026-05-08 03:36 -37.69593 164.80414 36524 ft 546 kts 137°
2026-05-08 03:36 -37.76719 164.89023 36386 ft 546 kts 136°
2026-05-08 03:36 -37.80217 164.93259 36577 ft 547 kts 136°
2026-05-08 03:37 -37.83767 164.97565 36455 ft 546 kts 136°
2026-05-08 03:37 -37.90823 165.06146 36480 ft 546 kts 136°
2026-05-08 03:38 -37.96635 165.13234 36472 ft 546 kts 136°
2026-05-08 03:38 -38.02078 165.19881 36476 ft 547 kts 136°
2026-05-08 03:39 -38.07555 165.26587 36464 ft 547 kts 136°
2026-05-08 03:39 -38.12978 165.33235 36455 ft 546 kts 136°
2026-05-08 03:40 -38.18459 165.39973 36457 ft 547 kts 136°
2026-05-08 03:40 -38.23879 165.46658 36457 ft 547 kts 136°
2026-05-08 03:40 -38.26612 165.50030 36572 ft 547 kts 136°
2026-05-08 03:41 -38.29322 165.53378 36510 ft 546 kts 136°
2026-05-08 03:41 -38.34755 165.60100 36451 ft 546 kts 136°
2026-05-08 03:42 -38.40199 165.66853 36440 ft 546 kts 135°
2026-05-08 03:42 -38.45605 165.73570 36442 ft 546 kts 135°
2026-05-08 03:43 -38.51037 165.80341 36442 ft 547 kts 135°
2026-05-08 03:43 -38.56457 165.87112 36436 ft 546 kts 135°
2026-05-08 03:44 -38.61886 165.93904 36440 ft 546 kts 135°
2026-05-08 03:44 -38.67305 166.00699 36442 ft 548 kts 135°
2026-05-08 03:45 -38.72706 166.07489 36426 ft 548 kts 135°
2026-05-08 03:45 -38.78160 166.14362 36425 ft 547 kts 135°
2026-05-08 03:46 -38.83556 166.21173 36418 ft 546 kts 135°
2026-05-08 03:46 -38.88923 166.27966 36398 ft 546 kts 135°
2026-05-08 03:47 -38.94323 166.34813 36399 ft 546 kts 135°
2026-05-08 03:47 -38.97009 166.38225 36230 ft 545 kts 135°
2026-05-08 03:47 -38.99707 166.41655 36322 ft 545 kts 134°
2026-05-08 03:48 -39.05082 166.48509 36398 ft 546 kts 135°
2026-05-08 03:48 -39.10462 166.55379 36423 ft 545 kts 134°
2026-05-08 03:49 -39.15798 166.62209 36414 ft 544 kts 134°
2026-05-08 03:49 -39.21175 166.69107 36426 ft 544 kts 133°
2026-05-08 03:50 -39.26495 166.75944 36418 ft 544 kts 133°
2026-05-08 03:50 -39.31845 166.82843 36411 ft 542 kts 134°
2026-05-08 03:51 -39.37172 166.89725 36405 ft 542 kts 133°
2026-05-08 03:51 -39.42466 166.96576 36394 ft 542 kts 133°
2026-05-08 03:52 -39.47796 167.03493 36397 ft 541 kts 133°
2026-05-08 03:52 -39.53105 167.10400 36389 ft 541 kts 133°
2026-05-08 03:53 -39.58387 167.17285 36398 ft 541 kts 133°
2026-05-08 03:53 -39.63657 167.24168 36392 ft 540 kts 133°
2026-05-08 03:54 -39.68948 167.31099 36385 ft 540 kts 133°
2026-05-08 03:54 -39.74187 167.37976 36391 ft 538 kts 133°
2026-05-08 03:55 -39.79445 167.44891 36383 ft 538 kts 133°
2026-05-08 03:55 -39.84688 167.51802 36379 ft 538 kts 132°
2026-05-08 03:56 -39.89916 167.58716 36377 ft 539 kts 133°
2026-05-08 03:56 -39.95162 167.65666 36379 ft 537 kts 132°
2026-05-08 03:57 -40.00382 167.72594 36384 ft 537 kts 132°
2026-05-08 03:57 -40.05600 167.79541 36397 ft 537 kts 131°
2026-05-08 03:58 -40.10813 167.86493 36392 ft 536 kts 131°
2026-05-08 03:58 -40.16023 167.93463 36375 ft 536 kts 131°
2026-05-08 03:59 -40.21216 168.00427 36391 ft 537 kts 131°
2026-05-08 03:59 -40.26412 168.07408 36387 ft 537 kts 130°
2026-05-08 04:00 -40.31567 168.14345 36389 ft 536 kts 131°
2026-05-08 04:00 -40.36741 168.21330 36383 ft 536 kts 131°
2026-05-08 04:01 -40.41917 168.28336 36373 ft 536 kts 130°
2026-05-08 04:01 -40.47079 168.35330 36373 ft 535 kts 130°
2026-05-08 04:02 -40.52231 168.42340 36356 ft 536 kts 130°
2026-05-08 04:02 -40.57410 168.49397 36371 ft 535 kts 130°
2026-05-08 04:03 -40.62567 168.56439 36380 ft 535 kts 130°
2026-05-08 04:03 -40.70282 168.67007 36336 ft 535 kts 129°
2026-05-08 04:04 -40.75411 168.74057 36334 ft 535 kts 129°
2026-05-08 04:04 -40.80547 168.81128 36358 ft 533 kts 129°
2026-05-08 04:05 -40.85651 168.88173 36364 ft 533 kts 129°
2026-05-08 04:05 -40.90783 168.95276 36362 ft 534 kts 129°
2026-05-08 04:06 -40.96336 169.02975 36373 ft 533 kts 129°
2026-05-08 04:06 -41.01422 169.10054 36354 ft 534 kts 129°
2026-05-08 04:07 -41.06530 169.17174 36370 ft 533 kts 129°
2026-05-08 04:07 -41.12178 169.25070 36370 ft 533 kts 129°
2026-05-08 04:08 -41.17273 169.32204 36359 ft 531 kts 129°
2026-05-08 04:08 -41.22315 169.39282 36344 ft 529 kts 129°
2026-05-08 04:09 -41.27353 169.46378 36361 ft 530 kts 129°
2026-05-08 04:09 -41.32420 169.53529 36383 ft 531 kts 129°
2026-05-08 04:10 -41.37448 169.60640 36364 ft 529 kts 129°
2026-05-08 04:10 -41.42698 169.68083 36363 ft 528 kts 128°
2026-05-08 04:11 -41.48612 169.76494 36379 ft 526 kts 127°
2026-05-08 04:11 -41.54750 169.85248 36375 ft 524 kts 128°
2026-05-08 04:12 -41.61029 169.94238 36009 ft 527 kts 128°
2026-05-08 04:12 -41.64212 169.98793 35445 ft 524 kts 127°
2026-05-08 04:12 -41.67309 170.03241 34937 ft 518 kts 127°
2026-05-08 04:13 -41.70422 170.07594 34422 ft 514 kts 130°
2026-05-08 04:13 -41.73631 170.11551 33895 ft 513 kts 134°
2026-05-08 04:13 -41.76900 170.15164 33315 ft 510 kts 136°
2026-05-08 04:13 -41.80131 170.18646 32714 ft 510 kts 136°
2026-05-08 04:14 -41.83371 170.22127 31997 ft 511 kts 136°
2026-05-08 04:14 -41.86595 170.25604 31243 ft 511 kts 136°
2026-05-08 04:14 -41.89870 170.29153 30550 ft 510 kts 136°
2026-05-08 04:14 -41.93080 170.32638 30013 ft 506 kts 136°
2026-05-08 04:15 -41.96275 170.36119 29479 ft 502 kts 136°
2026-05-08 04:15 -41.99482 170.39618 28989 ft 497 kts 136°
2026-05-08 04:15 -42.02599 170.43019 28479 ft 493 kts 135°
2026-05-08 04:15 -42.05689 170.46403 28028 ft 488 kts 136°
2026-05-08 04:16 -42.08814 170.49832 27511 ft 485 kts 136°
2026-05-08 04:16 -42.11861 170.53175 26997 ft 481 kts 136°
2026-05-08 04:16 -42.14515 170.56090 26606 ft 477 kts 136°
2026-05-08 04:16 -42.17057 170.58890 26216 ft 473 kts 136°
2026-05-08 04:17 -42.19590 170.61679 25812 ft 470 kts 136°
2026-05-08 04:17 -42.22080 170.64420 25426 ft 467 kts 136°
2026-05-08 04:17 -42.24587 170.67189 25030 ft 465 kts 135°
2026-05-08 04:17 -42.27176 170.70047 24685 ft 462 kts 135°
2026-05-08 04:18 -42.30073 170.73256 24262 ft 460 kts 135°
2026-05-08 04:18 -42.33020 170.76527 23795 ft 459 kts 135°
2026-05-08 04:18 -42.36057 170.79889 23298 ft 457 kts 135°
2026-05-08 04:18 -42.39124 170.83293 22836 ft 454 kts 135°
2026-05-08 04:19 -42.42210 170.86734 22353 ft 453 kts 136°
2026-05-08 04:19 -42.45239 170.90106 21862 ft 451 kts 135°
2026-05-08 04:19 -42.48303 170.93514 21436 ft 447 kts 136°
2026-05-08 04:19 -42.51327 170.96883 20995 ft 445 kts 135°
2026-05-08 04:20 -42.54331 171.00240 20564 ft 442 kts 135°
2026-05-08 04:20 -42.57375 171.03654 20092 ft 440 kts 136°
2026-05-08 04:20 -42.60398 171.07034 19639 ft 438 kts 136°
2026-05-08 04:20 -42.63436 171.10442 19165 ft 435 kts 136°
2026-05-08 04:21 -42.66428 171.13791 18742 ft 431 kts 135°
2026-05-08 04:21 -42.69358 171.17096 18270 ft 429 kts 136°
2026-05-08 04:21 -42.72286 171.20390 17794 ft 428 kts 135°
2026-05-08 04:21 -42.75241 171.23724 17328 ft 426 kts 135°
2026-05-08 04:22 -42.78014 171.26859 16887 ft 425 kts 135°
2026-05-08 04:22 -42.80263 171.29399 16560 ft 422 kts 136°
2026-05-08 04:22 -42.82516 171.31943 16234 ft 421 kts 135°
2026-05-08 04:22 -42.84778 171.34500 15873 ft 419 kts 135°
2026-05-08 04:23 -42.86982 171.37004 15518 ft 417 kts 136°
2026-05-08 04:23 -42.89668 171.40060 15111 ft 415 kts 135°
2026-05-08 04:23 -42.92531 171.43304 14637 ft 418 kts 134°
2026-05-08 04:23 -42.95464 171.46654 14186 ft 423 kts 134°
2026-05-08 04:24 -42.97986 171.49580 13653 ft 422 kts 131°
2026-05-08 04:24 -42.99972 171.52493 13174 ft 416 kts 121°
2026-05-08 04:24 -43.01617 171.55688 12789 ft 407 kts 114°
2026-05-08 04:24 -43.03102 171.58900 12457 ft 401 kts 114°
2026-05-08 04:25 -43.04671 171.62363 12070 ft 397 kts 115°
2026-05-08 04:25 -43.06533 171.66454 11614 ft 394 kts 114°
2026-05-08 04:25 -43.08256 171.70177 11184 ft 392 kts 115°
2026-05-08 04:25 -43.09935 171.73756 10784 ft 389 kts 114°
2026-05-08 04:26 -43.11655 171.77441 10371 ft 385 kts 115°
2026-05-08 04:26 -43.13471 171.80881 10151 ft 380 kts 125°
2026-05-08 04:26 -43.15774 171.84061 10126 ft 366 kts 134°
2026-05-08 04:26 -43.18184 171.86974 10079 ft 351 kts 135°
2026-05-08 04:27 -43.20498 171.89748 10033 ft 342 kts 133°
2026-05-08 04:27 -43.22635 171.92355 10022 ft 337 kts 134°
2026-05-08 04:27 -43.24649 171.94840 9997 ft 323 kts 133°
2026-05-08 04:27 -43.26603 171.97253 9995 ft 318 kts 133°
2026-05-08 04:28 -43.28538 171.99635 9994 ft 319 kts 135°
2026-05-08 04:28 -43.30632 172.01781 9939 ft 318 kts 144°
2026-05-08 04:28 -43.32870 172.03708 9640 ft 318 kts 147°
2026-05-08 04:28 -43.35101 172.05554 9332 ft 318 kts 147°
2026-05-08 04:29 -43.37317 172.07400 9059 ft 315 kts 146°
2026-05-08 04:29 -43.39536 172.09279 8800 ft 312 kts 146°
2026-05-08 04:29 -43.41698 172.11127 8572 ft 309 kts 146°
2026-05-08 04:29 -43.43838 172.12953 8326 ft 306 kts 146°
2026-05-08 04:30 -43.45957 172.14771 8060 ft 304 kts 146°
2026-05-08 04:30 -43.48063 172.16573 7634 ft 304 kts 146°
2026-05-08 04:30 -43.50197 172.18399 7249 ft 302 kts 145°
2026-05-08 04:30 -43.52272 172.20175 6933 ft 297 kts 144°
2026-05-08 04:31 -43.54020 172.21680 6646 ft 292 kts 144°
2026-05-08 04:31 -43.55659 172.23318 6122 ft 293 kts 136°
2026-05-08 04:31 -43.57189 172.25099 5700 ft 289 kts 134°
2026-05-08 04:31 -43.58674 172.26881 5487 ft 276 kts 134°
2026-05-08 04:32 -43.60090 172.28577 5252 ft 264 kts 134°
2026-05-08 04:32 -43.61463 172.30215 4940 ft 258 kts 134°
2026-05-08 04:32 -43.62796 172.31804 4593 ft 254 kts 134°
2026-05-08 04:32 -43.64025 172.33521 4216 ft 242 kts 111°
2026-05-08 04:33 -43.64468 172.35617 3835 ft 221 kts 78°
2026-05-08 04:33 -43.64025 172.37485 3502 ft 198 kts 43°
2026-05-08 04:33 -43.62984 172.38518 3299 ft 177 kts 21°
2026-05-08 04:33 -43.61877 172.39131 3093 ft 168 kts 20°
2026-05-08 04:34 -43.60842 172.39801 2870 ft 161 kts 26°
2026-05-08 04:34 -43.59912 172.40614 2669 ft 154 kts 32°
2026-05-08 04:34 -43.59079 172.41479 2469 ft 148 kts 34°
2026-05-08 04:34 -43.58294 172.42355 2284 ft 145 kts 35°
2026-05-08 04:35 -43.57513 172.43251 2101 ft 146 kts 36°
2026-05-08 04:35 -43.56737 172.44148 1910 ft 146 kts 37°
2026-05-08 04:35 -43.55961 172.45047 1725 ft 146 kts 36°
2026-05-08 04:35 -43.55179 172.45952 1531 ft 145 kts 37°
2026-05-08 04:36 -43.54282 172.46988 1298 ft 145 kts 37°
2026-05-08 04:36 -43.53444 172.47957 1089 ft 144 kts 38°
2026-05-08 04:36 -43.52629 172.48880 850 ft 156 kts 37°
2026-05-08 04:36 -43.51807 172.49828 664 ft 150 kts 40°
2026-05-08 04:37 -43.51012 172.50751 479 ft 148 kts 40°
2026-05-08 04:37 -43.50242 172.51645 292 ft 144 kts 41°
2026-05-08 04:37 -43.49486 172.52528 139 ft 138 kts 41°
2026-05-08 04:37 -43.48844 172.53279 125 ft 95 kts 40°
2026-05-08 04:38 -43.48472 172.53708 118 ft 55 kts 41°
2026-05-08 04:38 -43.48204 172.54018 117 ft 40 kts 40°
2026-05-08 04:38 -43.48111 172.54126 118 ft 8 kts 48°
2026-05-08 04:38 -43.48120 172.54198 117 ft 9 kts 139°
2026-05-08 04:39 -43.48185 172.54231 118 ft 10 kts 167°
2026-05-08 04:39 -43.48262 172.54256 118 ft 11 kts 173°
2026-05-08 04:39 -43.48333 172.54207 117 ft 12 kts 221°
2026-05-08 04:39 -43.48404 172.54123 116 ft 13 kts 220°
2026-05-08 04:40 -43.48456 172.54062 117 ft 8 kts 221°
2026-05-08 04:40 -43.48504 172.54011 118 ft 8 kts 210°
2026-05-08 04:40 -43.48565 172.53992 119 ft 9 kts 185°
2026-05-08 04:40 -43.48633 172.53984 119 ft 7 kts 185°
2026-05-08 04:41 -43.48645 172.53983 119 ft 0 kts 185°